User: anonymous   Login
Location: Caltech
(34.1382°N, 118.1253°W)
Time: 08:04:16
(UTC-07:00)
Language:

Iridium 95 - Orbit

View from above orbital plane
View from above orbital plane
View from above satellite
View from above satellite

Ground track
Ground track

The orbit data is extracted from the following two-line orbital elements,

1 27375U 02005D   17265.38259070 -.00000033  00000-0 -18757-4 0  9996
2 27375  86.3935 246.5360 0002844  99.9142 260.2375 14.34218057824844
Epoch (UTC): 22 September 2017 09:10:55
Eccentricity: 0.0002844
inclination: 86.3935°
perigee height: 775 km
apogee height: 780 km
right ascension of ascending node: 246.5360°
argument of perigee: 99.9142°
revolutions per day: 14.34218057
mean anomaly at epoch: 260.2375°
orbit number at epoch: 82484

The dashed part of the orbit path shows where the satellite is in the earth's shadow,  

DLR